When you browse on this site, cookies collect data to enhance your experience and personalize the content and advertising you see.
Visit our Privacy Policy to learn more. By continuing to use the site, you agree to this use of cookies and data.
  • In Austria
  • List of Countries
  • For 7 days
  • Water Temperature
  • Weather Map
  • News
  • Weather Widgets
  • user-avatar
    Login

    Hourly Weather Tarin Kowt

    Today, 29 February, Saturday

    Time Temperature Precipitation Wind Pressure Humidity
    00:00 +6°C° 0 mm 0 mps 616 mmHg 68%
    01:00 +6°C° 0 mm 0 mps 616 mmHg 69%
    02:00 +5°C° 0 mm 0 mps 615 mmHg 70%
    03:00 +6°C° 0 mm 1 mps 615 mmHg 70%
    04:00 +6°C° 0 mm 1 mps 615 mmHg 72%
    05:00 +6°C° 0 mm 1 mps 615 mmHg 72%
    06:00 +6°C° 0 mm 1 mps 615 mmHg 72%
    07:00 +7°C° 0 mm 1 mps 616 mmHg 71%
    08:00 +8°C° 0 mm 1 mps 616 mmHg 64%
    09:00 +9°C° 0 mm 1 mps 616 mmHg 56%
    10:00 +10°C° 0 mm 1 mps 616 mmHg 49%
    11:00 +11°C° 0 mm 1 mps 616 mmHg 46%
    12:00 +12°C° 0 mm 1 mps 616 mmHg 43%
    13:00 +12°C° 0 mm 1 mps 616 mmHg 40%
    14:00 +13°C° 0 mm 1 mps 616 mmHg 39%
    15:00 +13°C° 0 mm 1 mps 616 mmHg 38%
    16:00 +13°C° 0 mm 1 mps 616 mmHg 37%
    17:00 +13°C° 0 mm 1 mps 616 mmHg 42%
    18:00 +12°C° 0 mm 1 mps 616 mmHg 47%
    19:00 +10°C° 0 mm 0 mps 617 mmHg 51%
    20:00 +10°C° 0 mm 0 mps 617 mmHg 53%
    21:00 +9°C° 0 mm 0 mps 617 mmHg 55%
    22:00 +9°C° 0 mm 0 mps 617 mmHg 57%
    23:00 +8°C° 0 mm 0 mps 617 mmHg 57%

    Tomorrow, 1 March, Sunday

    Time Temperature Precipitation Wind Pressure Humidity
    00:00 +8°C° 0 mm 0 mps 616 mmHg 57%
    01:00 +8°C° 0 mm 1 mps 616 mmHg 57%
    02:00 +8°C° 0 mm 1 mps 616 mmHg 56%
    03:00 +8°C° 0 mm 1 mps 616 mmHg 55%
    04:00 +6°C° 0 mm 2 mps 616 mmHg 54%
    05:00 +6°C° 0 mm 2 mps 616 mmHg 53%
    06:00 +6°C° 0 mm 2 mps 616 mmHg 53%
    07:00 +7°C° 0 mm 2 mps 617 mmHg 53%
    08:00 +8°C° 0 mm 2 mps 617 mmHg 47%
    09:00 +9°C° 0 mm 2 mps 618 mmHg 41%
    10:00 +12°C° 0 mm 2 mps 618 mmHg 35%
    11:00 +12°C° 0 mm 2 mps 618 mmHg 33%
    12:00 +13°C° 0 mm 2 mps 618 mmHg 30%
    13:00 +14°C° 0 mm 2 mps 618 mmHg 28%
    14:00 +15°C° 0 mm 2 mps 618 mmHg 28%
    15:00 +15°C° 0 mm 2 mps 617 mmHg 27%
    16:00 +15°C° 0 mm 2 mps 617 mmHg 27%
    17:00 +14°C° 0 mm 1 mps 617 mmHg 32%
    18:00 +13°C° 0 mm 1 mps 617 mmHg 37%
    19:00 +12°C° 0 mm 1 mps 617 mmHg 42%
    20:00 +12°C° 0 mm 1 mps 617 mmHg 43%
    21:00 +11°C° 0 mm 1 mps 617 mmHg 45%
    22:00 +9°C° 0 mm 0 mps 617 mmHg 46%
    23:00 +10°C° 0 mm 1 mps 617 mmHg 46%

    Day after tomorrow, 2 March, Monday

    Time Temperature Precipitation Wind Pressure Humidity
    00:00 +10°C° 0 mm 1 mps 617 mmHg 46%
    01:00 +9°C° 0 mm 1 mps 617 mmHg 46%
    02:00 +9°C° 0 mm 1 mps 616 mmHg 46%
    03:00 +8°C° 0 mm 1 mps 616 mmHg 47%
    04:00 +8°C° 0 mm 1 mps 615 mmHg 47%
    05:00 +8°C° 0 mm 1 mps 616 mmHg 47%
    06:00 +7°C° 0 mm 2 mps 616 mmHg 47%
    07:00 +7°C° 0 mm 2 mps 616 mmHg 47%
    08:00 +9°C° 0 mm 2 mps 617 mmHg 42%
    09:00 +11°C° 0 mm 1 mps 617 mmHg 36%
    10:00 +12°C° 0 mm 1 mps 618 mmHg 30%
    11:00 +13°C° 0 mm 1 mps 618 mmHg 28%
    12:00 +14°C° 0 mm 1 mps 618 mmHg 26%
    13:00 +15°C° 0 mm 1 mps 617 mmHg 23%
    14:00 +15°C° 0 mm 1 mps 617 mmHg 23%
    15:00 +16°C° 0 mm 1 mps 617 mmHg 22%
    16:00 +16°C° 0 mm 1 mps 617 mmHg 22%
    17:00 +15°C° 0 mm 1 mps 616 mmHg 28%
    18:00 +14°C° 0 mm 1 mps 616 mmHg 34%
    19:00 +12°C° 0 mm 0 mps 616 mmHg 40%
    20:00 +12°C° 0 mm 1 mps 616 mmHg 40%
    21:00 +12°C° 0 mm 1 mps 616 mmHg 39%
    22:00 +11°C° 0 mm 1 mps 616 mmHg 39%
    23:00 +11°C° 0 mm 1 mps 616 mmHg 39%

    3 March, Tuesday

    Time Temperature Precipitation Wind Pressure Humidity
    00:00 +11°C° 0 mm 1 mps 616 mmHg 39%
    01:00 +9°C° 0 mm 2 mps 615 mmHg 39%
    02:00 +9°C° 0 mm 2 mps 615 mmHg 39%
    03:00 +9°C° 0 mm 2 mps 614 mmHg 39%
    04:00 +8°C° 0 mm 2 mps 614 mmHg 40%
    05:00 +8°C° 0 mm 2 mps 614 mmHg 40%
    06:00 +8°C° 0 mm 2 mps 614 mmHg 41%
    07:00 +9°C° 0 mm 2 mps 615 mmHg 41%
    08:00 +10°C° 0 mm 2 mps 615 mmHg 37%
    09:00 +13°C° 0 mm 2 mps 616 mmHg 32%
    10:00 +13°C° 0 mm 3 mps 616 mmHg 28%
    11:00 +14°C° 0 mm 3 mps 616 mmHg 27%
    12:00 +15°C° 0 mm 4 mps 616 mmHg 26%
    13:00 +17°C° 0 mm 4 mps 615 mmHg 25%
    14:00 +17°C° 0 mm 4 mps 615 mmHg 25%
    15:00 +17°C° 0 mm 4 mps 614 mmHg 26%
    16:00 +17°C° 0 mm 4 mps 614 mmHg 27%
    17:00 +16°C° 0.3 mm 3 mps 613 mmHg 35%
    18:00 +13°C° 0.3 mm 3 mps 613 mmHg 43%
    19:00 +12°C° 0.3 mm 2 mps 612 mmHg 51%
    20:00 +12°C° 0.4 mm 2 mps 612 mmHg 55%
    21:00 +10°C° 0.4 mm 2 mps 612 mmHg 59%
    22:00 +10°C° 0.4 mm 1 mps 612 mmHg 63%
    23:00 +10°C° 0.3 mm 1 mps 611 mmHg 65%

    4 March, Wednesday

    Time Temperature Precipitation Wind Pressure Humidity
    00:00 +9°C° 0.3 mm 2 mps 611 mmHg 67%
    01:00 +9°C° 0.3 mm 2 mps 611 mmHg 68%
    02:00 +8°C° 0.3 mm 2 mps 611 mmHg 70%
    03:00 +8°C° 0.3 mm 1 mps 610 mmHg 72%
    04:00 +8°C° 0.3 mm 1 mps 610 mmHg 74%
    05:00 +8°C° 0.2 mm 1 mps 610 mmHg 73%
    06:00 +8°C° 0.2 mm 1 mps 611 mmHg 73%
    07:00 +8°C° 0.2 mm 1 mps 611 mmHg 73%
    08:00 +8°C° 0 mm 2 mps 612 mmHg 64%
    09:00 +9°C° 0 mm 2 mps 612 mmHg 55%
    10:00 +10°C° 0 mm 3 mps 613 mmHg 47%
    11:00 +10°C° 0 mm 4 mps 612 mmHg 43%
    12:00 +9°C° 0 mm 5 mps 612 mmHg 40%
    13:00 +10°C° 0 mm 6 mps 612 mmHg 36%
    14:00 +9°C° 0 mm 6 mps 612 mmHg 37%
    15:00 +9°C° 0 mm 6 mps 611 mmHg 38%
    16:00 +9°C° 0 mm 6 mps 611 mmHg 39%
    17:00 +8°C° 0 mm 5 mps 611 mmHg 42%
    18:00 +7°C° 0 mm 5 mps 611 mmHg 46%
    19:00 +7°C° 0 mm 4 mps 611 mmHg 49%
    20:00 +7°C° 0 mm 3 mps 611 mmHg 51%
    21:00 +7°C° 0 mm 3 mps 611 mmHg 53%
    22:00 +6°C° 0 mm 2 mps 611 mmHg 55%
    23:00 +5°C° 0 mm 2 mps 611 mmHg 58%

    5 March, Thursday

    Time Temperature Precipitation Wind Pressure Humidity
    00:00 +5°C° 0 mm 2 mps 611 mmHg 61%
    01:00 +4°C° 0 mm 2 mps 611 mmHg 63%
    02:00 +5°C° 0 mm 1 mps 611 mmHg 66%
    03:00 +4°C° 0 mm 1 mps 610 mmHg 68%
    04:00 +4°C° 0 mm 1 mps 610 mmHg 70%
    05:00 +4°C° 0 mm 1 mps 611 mmHg 69%
    06:00 +4°C° 0 mm 1 mps 611 mmHg 69%
    07:00 +3°C° 0 mm 2 mps 611 mmHg 68%
    08:00 +4°C° 0 mm 2 mps 612 mmHg 62%
    09:00 +5°C° 0 mm 2 mps 612 mmHg 56%
    10:00 +5°C° 0 mm 2 mps 612 mmHg 49%
    11:00 +5°C° 0 mm 3 mps 612 mmHg 47%
    12:00 +7°C° 0 mm 3 mps 612 mmHg 44%
    13:00 +7°C° 0 mm 3 mps 612 mmHg 42%
    14:00 +7°C° 0 mm 3 mps 611 mmHg 40%
    15:00 +7°C° 0 mm 2 mps 611 mmHg 39%
    16:00 +7°C° 0 mm 2 mps 611 mmHg 38%
    17:00 +7°C° 0 mm 2 mps 611 mmHg 42%
    18:00 +6°C° 0 mm 2 mps 611 mmHg 46%
    19:00 +6°C° 0 mm 2 mps 611 mmHg 49%
    20:00 +6°C° 0 mm 2 mps 611 mmHg 52%
    21:00 +6°C° 0 mm 1 mps 611 mmHg 55%
    22:00 +6°C° 0 mm 1 mps 611 mmHg 58%
    23:00 +5°C° 0 mm 1 mps 611 mmHg 59%
    Show more